Location: Hornio
(61.4667°N, 22.9500°E)
Time: 04:32:54
(UTC+00:00)

Daily predictions for brighter satellites

Satellite Brightness Start Highest point End
(mag) Time Altitude Azimuth Time Altitude Azimuth Time Altitude Azimuth
Cosmos 2369 Rocket 4.2 01:06:59 24° NNE 01:06:59 24° NNE 01:09:22 10° NE
CZ-2D R/B 4.3 01:22:08 10° NNE 01:23:37 19° N 01:23:37 19° N
Cosmos 2278 Rocket 3.8 01:33:32 30° NNE 01:33:32 30° NNE 01:37:30 10° ENE
Resurs 1-4 Rocket 4.2 01:34:51 10° NNE 01:36:28 20° N 01:36:28 20° N
Cosmos 1844 Rocket 4.0 01:49:24 36° ENE 01:49:24 36° ENE 01:53:07 10° ESE
COSMOS 2455 4.4 01:52:43 28° ESE 01:52:55 28° ESE 01:57:56 10° ENE
CZ-2C R/B 4.4 01:50:28 10° NNE 01:54:41 26° E 01:55:37 24° ESE
Cosmos 1943 Rocket 3.6 01:59:51 30° NNE 01:59:51 30° NNE 02:03:33 10° NE
Cosmos 2344 4.4 02:01:25 38° SSE 02:02:59 42° SE 02:10:57 10° ENE
ADEOS II 3.8 02:01:42 10° NNE 02:04:02 27° N 02:04:02 27° N
NOSS 3-1 (C) 3.7 02:20:59 76° NNE 02:20:59 76° NNE 02:28:16 10° E
SL-8 Rocket 4.4 02:16:40 10° NNW 02:22:49 59° ENE 02:28:54 10° SSE
Cosmos 2278 4.3 02:24:48 53° ESE 02:24:48 53° ESE 02:30:05 10° NE
ARIANE 5 R/B 4.1 02:21:47 10° NNE 02:24:08 27° N 02:24:08 27° N
SL-16 R/B 4.3 02:28:40 10° SSE 02:32:57 22° ESE 02:37:14 10° NE
Lacrosse 5 rocket 3.6 02:36:13 23° SE 02:36:13 23° SE 02:38:00 10° ESE
ATLAS 3B R/B 4.0 02:39:15 25° SSE 02:39:15 25° SSE 02:42:04 10° SSE
Cosmos 2369 3.9 02:37:06 69° E 02:37:06 69° E 02:42:24 10° NE
Cosmos 1980 Rocket 2.8 02:37:21 50° SE 02:37:46 51° ESE 02:43:14 10° NE
Nadezhda 1 Rocket 4.0 02:37:11 65° SE 02:37:52 72° E 02:44:01 10° NNE
H-2A R/B 4.2 02:34:58 10° NE 02:38:17 28° E 02:38:17 28° E
Cosmos 1844 3.9 02:41:19 67° NE 02:41:19 67° NE 02:46:51 10° SE
Lacrosse 5 4.3 02:39:53 12° SSE 02:41:32 14° SE 02:44:04 10° E
Cosmos 1697 Rocket 2.8 02:42:15 71° E 02:42:15 71° E 02:47:28 10° NE
ADEOS Rocket 4.3 02:37:20 10° ESE 02:42:34 37° NE 02:48:15 10° NNW
NOSS 2-3 (E) 4.3 02:43:25 73° NE 02:43:25 73° NE 02:49:33 10° ENE
Cosmos 2369 Rocket 3.3 02:48:46 32° N 02:49:04 32° N 02:54:11 10° ENE
IDEFIX/ARIANE 42P 3.0 02:44:16 10° NNE 02:48:28 57° N 02:48:28 57° N
CENTAUR R/B 4.2 02:54:38 27° SSW 02:54:38 27° SSW 02:58:52 10° S
Cosmos 2341 Rocket 3.8 02:45:14 10° NNW 02:51:32 84° WSW 02:57:46 10° S
PAYLOAD A 4.2 02:48:52 10° NNE 02:53:14 60° E 02:53:14 60° E
MSX 3.8 02:49:54 10° NNE 02:55:43 81° ESE 02:56:27 69° S
NOSS 2-3 (D) 4.2 02:56:37 77° N 02:56:37 77° N 03:03:10 10° ENE
USA 229 DEB 3.7 02:56:11 62° WNW 02:57:22 76° N 03:04:41 10° E
USA 229 3.7 02:56:17 63° WNW 02:57:27 76° N 03:04:46 10° E
NOSS 2-2 (E) 4.4 02:58:31 47° ESE 02:58:31 47° ESE 03:02:33 10° ENE
Cosmos 2228 4.0 02:58:47 41° ESE 02:59:28 45° E 03:03:39 10° NNE
Aureole 3 4.3 03:00:38 62° NNW 03:00:38 62° NNW 03:04:51 10° NNE
Cosmos 1953 3.9 03:02:23 31° NNE 03:02:23 31° NNE 03:04:37 10° NNE
Cosmos 1656 3.7 03:01:05 64° N 03:01:05 64° N 03:06:10 10° NE
Lacrosse 4 Rocket 2.8 03:03:28 34° NNE 03:03:28 34° NNE 03:07:02 10° ENE
NOSS 3-1 (A) 3.6 03:02:30 63° WNW 03:03:37 76° N 03:11:14 10° E
Cosmos 1606 Rocket 4.2 03:03:51 50° ESE 03:04:11 52° E 03:08:27 10° NNE
CZ-4B R/B 4.2 03:00:40 10° NNE 03:04:46 40° E 03:06:10 30° SE
USA 215 3.4 02:59:00 10° SE 03:05:21 51° SSW 03:05:38 51° SSW
CZ-2D R/B 4.0 03:02:44 10° N 03:04:57 18° NNW 03:04:57 18° NNW
Cosmos 2218 Rocket 3.9 03:05:08 10° NNW 03:11:35 89° E 03:17:57 10° SSE
ALOS 4.0 03:08:13 10° NNE 03:12:25 31° E 03:16:35 10° SSE
Spot 2 4.4 03:10:47 10° NNE 03:14:23 59° NE 03:14:23 59° NE
Cosmos 1959 Rocket 4.3 03:10:24 10° NNW 03:16:34 88° WSW 03:22:45 10° S
Cosmos 2278 Rocket 2.8 03:15:23 34° NNW 03:17:36 53° NE 03:23:09 10° ESE
Resurs 1-4 Rocket 4.0 03:15:16 10° N 03:17:33 17° NNW 03:17:33 17° NNW
Cosmos 1726 3.5 03:20:51 33° NNE 03:20:51 33° NNE 03:23:02 10° NNE
Cosmos 371 Rocket 3.8 03:18:52 38° N 03:20:27 56° NE 03:25:13 10° SE
Cosmos 923 Rocket 4.4 03:20:48 33° S 03:23:05 62° ESE 03:28:23 10° NE
ADEOS 3.4 03:19:56 10° NNE 03:25:11 76° WNW 03:25:41 69° WSW
Uosat 12 SS-18 rocket 4.3 03:28:10 68° NNW 03:28:39 76° NNE 03:33:10 10° ESE
CZ-4B R/B 4.1 03:24:54 10° NNE 03:28:22 64° ENE 03:28:22 64° ENE
Cosmos 1484 Rocket 3.6 03:25:41 10° NNE 03:29:20 48° E 03:30:55 29° SSE
USA 116 4.5 03:26:04 10° SSE 03:28:57 44° SSE 03:28:57 44° SSE
Cosmos 1844 Rocket 2.6 03:31:05 60° W 03:31:51 69° SW 03:37:28 10° SSE
NOSS 2-3 (C) 4.3 03:30:45 56° WNW 03:31:58 74° N 03:38:51 10° E
Cosmos 2322 Rocket 3.4 03:26:42 10° S 03:32:00 41° ESE 03:37:20 10° NE
CZ-2C R/B 2.4 03:28:24 10° NNE 03:33:29 83° WNW 03:35:01 47° SSW
Cosmos 2366 rocket 3.9 03:30:03 10° NNW 03:36:24 73° W 03:42:44 10° S
GEOS 3 Rocket 3.6 03:31:49 10° ENE 03:37:03 75° NNW 03:38:06 57° W
Meteor 1-11 4.1 03:32:30 10° NNW 03:38:04 65° W 03:43:40 10° S
COSMOS 2455 2.9 03:35:53 40° SW 03:38:11 78° SE 03:44:14 10° NE
Cosmos 1538 Rocket 3.9 03:39:10 60° W 03:39:56 69° NW 03:45:12 10° NNE
ATLAS 2AS CENTAUR R/B 3.4 03:35:15 21° SSW 03:40:50 62° SE 03:48:33 10° ENE
Cosmos 1943 Rocket 3.4 03:41:21 25° NNW 03:43:36 33° NNE 03:48:37 10° ENE
RESURS DK-1 4.3 03:41:36 10° S 03:45:11 29° ESE 03:48:49 10° ENE
ADEOS II 3.6 03:41:55 10° N 03:44:59 21° NNW 03:44:59 21° NNW
Cosmos 1867 3.6 03:48:42 51° W 03:49:44 60° SW 03:55:06 10° SE
Meteor 1-31 Rocket 2.6 03:46:11 10° NNE 03:49:50 76° NNW 03:49:50 76° NNW
Cosmos 1110 Rocket 4.2 03:47:04 24° NNW 03:50:18 70° NE 03:55:37 10° SE
FENGYUN 3A 4.3 03:45:14 10° NNE 03:50:35 56° ESE 03:55:55 10° S
APEX 4.4 03:50:02 41° NW 03:50:41 43° NNW 03:56:11 10° NE
Cosmos 1452 Rocket 3.4 03:49:39 44° NW 03:51:15 67° WSW 03:56:27 10° SSE
USA 32 4.2 03:46:20 10° NNW 03:52:44 40° SW 03:56:27 10° SSW
NOSS 2-2 (D) 3.5 03:59:56 54° WSW 04:00:52 85° SSE 04:05:57 10° ENE
Cosmos 304 Rocket 4.2 03:59:22 22° NNW 04:02:28 60° NE 04:07:15 10° SE
Cosmos 2360 4.2 04:02:09 39° WSW 04:04:13 64° NW 04:09:56 10° NE
ARIANE 5 R/B 4.1 04:01:29 10° N 04:04:29 20° NNW 04:04:29 20° NNW
CZ-2C R/B 4.4 04:01:00 10° ESE 04:05:41 31° NE 04:10:29 10° N
SL-8 Rocket 4.2 04:02:17 10° NNW 04:08:04 42° W 04:13:49 10° SSW
Cosmos 2278 3.8 04:06:43 38° W 04:08:45 58° NW 04:14:25 10° NE
NOSS 8 (H) 4.2 04:09:07 78° W 04:09:19 87° NNW 04:13:03 10° ENE
Cosmos 1680 Rocket 3.5 04:05:20 18° SSW 04:09:21 90° WNW 04:14:43 10° NE
NOSS 3-1 (C) 3.8 04:08:21 31° WNW 04:12:03 86° NNE 04:20:02 10° ESE
Lacrosse 5 rocket 2.6 04:11:52 29° SW 04:12:17 29° SSW 04:16:09 10° SSE
H-2A R/B 2.4 04:10:21 10° NNE 04:14:13 54° WNW 04:14:52 47° WSW
NOSS 8 (F) 4.2 04:14:18 67° WNW 04:14:35 73° NNW 04:18:18 10° ENE
Cosmos 1420 Rocket 4.4 04:13:33 37° W 04:14:39 41° WSW 04:19:37 10° S
Cosmos 2360 Rocket 3.3 04:10:01 10° S 04:15:23 45° ESE 04:20:45 10° NE
Cosmos 1340 Rocket 4.4 04:12:36 10° SSE 04:16:12 36° E 04:19:51 10° NNE
SL-16 R/B 2.4 04:10:37 10° SSW 04:16:17 74° SE 04:21:58 10° NE
Cosmos 2344 3.8 04:11:26 24° WSW 04:16:37 88° SSE 04:26:12 10° ENE
Cosmos 1300 3.3 04:16:31 10° S 04:20:17 59° E 04:24:05 10° NNE
Cosmos 2369 4.1 04:19:03 32° W 04:21:15 47° NNW 04:26:48 10° NE
MOS 1-B 4.5 04:15:31 10° NNE 04:21:21 77° ESE 04:27:11 10° SSW
Cosmos 1980 Rocket 2.3 04:19:08 31° WSW 04:21:48 59° NW 04:27:26 10° NE
CZ-4B R/B 3.9 04:16:41 10° NNE 04:22:10 56° ESE 04:27:31 10° S
Cosmos 1076 Rocket 3.4 04:18:18 10° NNW 04:22:41 72° W 04:27:03 10° S
Lacrosse 5 3.3 04:19:07 12° SSW 04:23:20 34° SSE 04:27:54 10° E
PSLV R/B 3.5 04:19:40 10° NNE 04:23:29 78° WNW 04:27:13 10° SSW
Nadezhda 1 Rocket 4.5 04:21:50 29° W 04:23:46 36° WNW 04:29:24 10° N
ATLAS 3B R/B 4.2 04:26:33 15° SW 04:26:33 15° SW 04:28:50 10° SW
Cosmos 1844 4.0 04:23:14 30° WNW 04:25:18 42° WSW 04:30:29 10° S
Cosmos 1697 Rocket 3.1 04:23:59 31° W 04:26:13 45° NNW 04:31:39 10° NE
ADEOS Rocket 2.8 04:22:09 10° S 04:27:49 72° WSW 04:34:02 10° NNW
IDEFIX/ARIANE 42P 3.6 04:24:18 10° N 04:28:39 27° NW 04:29:16 26° WNW
Cosmos 2112 Rocket 4.0 04:23:43 11° SW 04:28:54 80° NW 04:34:17 10° NE
Meteor 2-10 4.1 04:23:57 11° SW 04:28:55 54° WNW 04:33:59 10° NNE
Cosmos 1331 Rocket 3.9 04:26:16 17° NW 04:30:24 81° WSW 04:35:42 10° SSE
METEOR-M 4.1 04:26:16 10° NNE 04:31:41 87° WNW 04:37:03 10° SSW
PAYLOAD A 4.5 04:28:08 10° N 04:32:21 33° NW 04:33:22 30° W
Cosmos 2181 Rocket 4.1 04:27:03 10° SSW 04:33:16 58° WNW 04:39:37 10° NNE
Cosmos 2151 3.2 04:28:58 10° NNW 04:33:17 73° ENE 04:37:35 10° SSE
NOSS 2-3 (E) 4.5 04:30:50 27° WNW 04:34:08 81° NNE 04:41:26 10° ESE
Cosmos 2369 Rocket 3.2 04:30:32 17° NW 04:34:27 39° NNE 04:39:48 10° E
Okean O Rocket 2.0 04:30:12 10° NNE 04:34:41 69° ESE 04:39:06 10° S
Okean 3 Rocket 3.8 04:30:48 10° NNW 04:35:24 77° ENE 04:39:57 10° SSE
MSX 4.5 04:31:58 10° NNE 04:37:05 34° NW 04:39:30 24° W
SJ-12 3.8 04:33:02 10° NNE 04:37:05 66° WNW 04:41:09 10° SSW
Cosmos 2228 3.5 04:35:39 29° WSW 04:37:09 37° WNW 04:41:15 10° N
Cosmos 1953 3.6 04:38:06 23° NW 04:38:06 23° NW 04:40:46 10° N
Cosmos 1302 Rocket 4.1 04:33:30 14° NNW 04:38:01 78° NE 04:43:14 10° SE
NOSS 2-2 (C) 3.6 04:37:44 30° W 04:39:49 79° NNW 04:45:10 10° ENE
CZ-4B R/B 3.3 04:35:50 10° N 04:39:55 42° WNW 04:42:18 21° WSW
Meteor 1-16 Rocket 4.4 04:34:52 10° SW 04:40:31 49° WNW 04:46:04 10° NNE
Cosmos 2058 3.0 04:36:46 10° NNW 04:40:55 57° W 04:45:03 10° S
Cosmos 1726 Rocket 4.0 04:38:49 23° WSW 04:41:01 38° WNW 04:45:10 10° N
Cosmos 2058 Rocket 3.2 04:36:48 10° SW 04:41:04 50° WNW 04:45:21 10° N
OPS 8737 4.2 04:40:32 42° NW 04:41:18 63° N 04:44:24 10° E
In-Cosmos 22 Rocket 4.0 04:36:02 10° NNW 04:41:20 62° W 04:46:34 10° S
Cosmos 1606 Rocket 4.2 04:41:00 28° W 04:42:16 33° WNW 04:46:16 10° N
Lacrosse 4 Rocket 1.9 04:39:47 23° NW 04:42:22 56° NNE 04:46:44 10° ESE
Cosmos 1821 Rocket 3.9 04:36:40 10° NNW 04:42:45 60° W 04:48:43 10° S
Cosmos 1908 3.6 04:42:07 21° SW 04:44:20 40° WNW 04:48:04 10° N
CZ-2D R/B 4.2 04:43:58 10° N 04:44:55 10° NNW 04:45:51 10° NNW
Cosmos 1656 4.5 04:42:31 23° WNW 04:45:07 35° NNW 04:50:14 10° NE
CZ-2C R/B 3.7 04:41:14 10° SSE 04:45:45 84° ENE 04:50:14 10° NNW
NOSS 2-3 (D) 4.5 04:44:02 23° WNW 04:47:44 84° NNE 04:55:03 10° ESE
NOSS 2-2 (E) 3.7 04:45:53 26° W 04:48:19 75° N 04:53:53 10° ENE
USA 229 DEB 3.8 04:43:36 21° WNW 04:48:38 82° SSW 04:56:04 10° ESE
USA 229 3.8 04:43:42 21° WNW 04:48:44 83° SSW 04:56:09 10° ESE
Cosmos 1892 2.6 04:45:02 10° NNW 04:48:51 63° W 04:52:37 10° S
USA 215 4.3 04:43:53 10° SSE 04:49:27 29° SW 04:52:59 18° W
ALOS 2.2 04:45:33 10° NNE 04:50:11 61° WNW 04:54:47 10° SW
Transit 2A Rocket 4.5 04:49:37 16° WSW 04:53:02 84° NW 04:57:38 10° NE
Cosmos 1605 Rocket 4.1 04:47:49 10° NNW 04:54:17 87° E 05:00:39 10° SSE
Cosmos 1408 2.5 04:50:54 10° NNW 04:54:39 88° WSW 04:58:22 10° SSE
NOSS 3-1 (A) 3.9 04:49:57 20° WNW 04:54:58 89° SW 05:03:00 10° ESE
Cosmos 1726 3.4 04:55:23 22° NW 04:55:23 22° NW 04:57:57 10° N
COSMOS 2428 4.5 04:50:21 10° S 04:55:29 35° ESE 05:00:40 10° NE
NOSS 3-4 (A) 3.6 04:50:16 10° WSW 04:56:24 81° SSE 05:03:12 10° ENE
NOSS 3-4 (C) 3.6 04:50:20 10° WSW 04:56:31 81° SSE 05:03:18 10° ENE
Helios 1A Rocket 3.0 04:53:47 10° NNE 04:57:57 81° ESE 05:02:07 10° SSW
Meteor PRIRODA 4.3 04:54:42 10° N 04:58:06 33° WNW 05:00:36 16° WSW
Nadezhda 3 Rocket 4.0 04:51:56 10° SSW 04:58:09 86° WNW 05:04:27 10° NNE
PAYLOAD B 4.2 04:53:47 10° NNE 04:59:26 78° WNW 05:05:03 10° SSW
Cosmos 1825 2.2 04:55:42 10° NNW 04:59:30 80° ENE 05:03:17 10° SSE
Cosmos 371 Rocket 3.8 04:57:33 18° NW 05:00:48 40° WSW 05:05:18 10° S
Cosmos 332 Rocket 4.1 04:57:42 16° NW 05:01:15 47° WSW 05:05:51 10° S
Cosmos 2278 Rocket 2.3 04:57:13 15° NW 05:01:54 61° WSW 05:07:27 10° SSE
SJ-7 4.4 04:59:12 10° NNE 05:03:23 81° WNW 05:07:37 10° SSW
Cosmos 1484 Rocket 3.5 05:00:21 10° N 05:03:40 30° WNW 05:06:17 14° WSW
CZ-4 R/B 4.0 05:00:55 10° NE 05:04:29 26° E 05:08:01 10° SSE
Cosmos 158 Rocket 3.9 05:00:29 10° SW 05:05:23 61° NW 05:10:26 10° NNE
Cosmos 923 Rocket 4.4 05:01:10 14° WSW 05:05:31 44° NW 05:10:40 10° NNE
CZ-2C R/B 3.5 05:07:08 10° N 05:11:13 26° NW 05:14:25 14° W
Cosmos 1934 Rocket 4.0 05:05:26 10° NNW 05:11:26 59° W 05:17:29 10° S
Alouette 2 Rocket 3.0 05:10:46 10° SSW 05:14:23 76° WNW 05:18:11 10° NNE
Cosmos 1844 Rocket 4.0 05:12:46 17° WNW 05:14:54 20° WSW 05:18:56 10° SSW
GEOS 3 Rocket 3.9 05:09:48 10° E 05:14:55 60° N 05:19:13 15° WNW
Cosmos 2322 Rocket 2.2 05:10:11 10° SW 05:15:53 69° NW 05:21:37 10° NE
CZ-4B DEB 4.3 05:13:01 10° NNE 05:18:29 57° WNW 05:23:52 10° SW
Mayak 1.3 05:17:32 10° ENE 05:19:36 14° NE 05:21:41 10° NNE
Cosmos 1766 Rocket 3.6 05:16:12 10° NNW 05:20:30 59° W 05:24:46 10° S
Cosmos 2297 3.7 05:15:46 11° NW 05:21:18 86° NE 05:26:57 10° SE
Cosmos-2242 3.3 05:17:14 10° S 05:21:36 75° ESE 05:25:59 10° NNE
RESURS DK-1 2.3 05:18:48 10° SW 05:22:58 72° NW 05:27:10 10° NE
Meteor 1-31 Rocket 4.2 05:21:18 10° N 05:23:57 18° NW 05:25:13 16° WNW
ADEOS II 4.1 05:22:46 10° N 05:23:59 11° NNW 05:25:13 10° NNW
COSMOS 2455 3.0 05:19:02 12° W 05:24:29 57° NNW 05:30:27 10° ENE
Envisat 3.6 05:19:57 10° NNE 05:25:03 63° ESE 05:30:06 10° S
Cosmos 2100 Rocket 4.4 05:19:15 10° NNW 05:25:40 71° ENE 05:31:58 10° SSE
Meteor 2-10 Rocket 4.4 05:21:36 10° S 05:27:11 60° E 05:32:36 10° NNE
Cosmos 1943 Rocket 2.6 05:22:52 10° NW 05:28:22 58° NE 05:33:50 10° ESE
FENGYUN 3A 4.0 05:25:47 10° NNE 05:30:52 43° WNW 05:35:57 10° SW
ATLAS 2AS CENTAUR R/B 3.1 05:23:46 10° WSW 05:31:52 83° NNW 05:39:38 10° ENE
Cosmos 1408 Rocket 3.5 05:27:59 10° NNW 05:32:17 67° W 05:36:34 10° S
Meteor 2-1 Rocket 4.1 05:29:34 10° SSW 05:35:08 76° WNW 05:40:41 10° NNE
YAOGAN 6 2.9 05:35:00 10° NNE 05:38:33 70° ESE 05:42:03 10° S
Cosmos 304 Rocket 4.4 05:38:07 10° NW 05:42:34 37° WSW 05:47:00 10° S
Cosmos 2333 Rocket 2.8 05:37:35 10° SSW 05:43:17 64° SE 05:48:59 10° NE
SAR-Lupe-2 3.8 05:39:58 10° S 05:43:29 52° WSW 05:47:02 10° NNW
Cosmos 1812 Rocket 3.9 05:39:50 10° SW 05:44:03 42° WNW 05:48:19 10° N
SMAP 3.0 05:39:40 10° NNE 05:44:21 72° WNW 05:49:00 10° SSW
Cosmos 2173 Rocket 4.2 05:38:12 10° NNW 05:44:39 83° ENE 05:51:03 10° SSE
CZ-2C R/B 2.7 05:40:08 10° SSE 05:45:33 85° WSW 05:51:08 10° NNW
H-2A R/B 4.1 05:46:49 10° N 05:49:01 15° NW 05:51:14 10° WNW
Lacrosse 5 rocket 3.7 05:48:58 10° WSW 05:50:21 11° SW 05:51:42 10° SSW
NOSS 2-2 (D) 3.9 05:47:22 10° W 05:51:42 71° N 05:57:30 10° E
Cosmos 1680 Rocket 4.3 05:47:16 10° W 05:52:07 34° NNW 05:56:58 10° NNE
Cosmos 1340 Rocket 3.2 05:48:59 10° SW 05:52:41 39° WNW 05:56:25 10° N
Meteor 2-3 Rocket 3.8 05:47:35 10° NNW 05:53:10 68° W 05:58:47 10° S
DMSP B5D2-2 4.2 05:49:23 10° S 05:54:38 62° WSW 05:59:54 10° NNW
Cosmos 1939 Rocket 4.4 05:50:42 10° NNE 05:54:41 43° E 05:58:39 10° S
Cosmos 1300 3.7 05:53:03 10° WSW 05:56:17 25° WNW 05:59:30 10° N
H-2A R/B 3.1 05:52:47 10° N 05:56:32 43° WNW 06:00:14 10° SW
Cosmos 1992 Rocket 4.1 05:53:22 10° NW 05:58:37 72° WSW 06:03:50 10° SSE
Cosmos 1805 Rocket 3.9 05:54:37 10° NNW 05:59:02 68° ENE 06:03:23 10° SSE
Cosmos 2360 Rocket 2.2 05:53:38 10° WSW 05:59:18 65° NW 06:04:58 10° NE
NOAA 6 4.5 05:54:43 10° NNE 05:59:33 40° NW 06:04:22 10° WSW
Cosmos 292 Rocket 3.8 05:55:12 10° NW 06:00:02 81° WSW 06:04:50 10° SSE
SL-16 R/B 2.6 05:55:19 10° WSW 06:00:47 46° NNW 06:06:17 10° NE
Cosmos 2219 Rocket 2.5 05:55:21 10° SSW 06:01:02 76° SE 06:06:46 10° NE
CORIOLIS 4.1 05:57:01 10° NNE 06:02:23 73° WNW 06:07:44 10° SSW
CZ-4B R/B 3.5 05:57:26 10° NNE 06:02:42 44° NW 06:07:50 10° SW
NOSS 3-1 (C) 4.3 05:56:04 10° WNW 06:02:54 55° SW 06:10:51 10° SSE
Cosmos 1725 Rocket 4.3 05:56:48 10° NNW 06:03:00 70° ENE 06:09:13 10° SSE
Lacrosse 5 2.7 06:00:48 10° WSW 06:05:44 52° S 06:10:40 10° E
IDEFIX/ARIANE 42P 4.5 06:04:50 10° N 06:06:46 12° NNW 06:08:40 10° NW
Cosmos 1980 Rocket 3.0 06:01:41 10° WNW 06:06:50 34° NNW 06:11:58 10° NE
Cosmos 1455 2.3 06:03:44 10° SSW 06:07:33 55° WNW 06:11:22 10° N
Cosmos 2333 4.3 06:01:55 10° SW 06:07:43 84° NW 06:13:32 10° NE
Cosmos 2322 3.7 06:03:04 10° SW 06:08:46 78° NW 06:14:29 10° NE
NOSS 6 (F) 4.5 06:06:18 10° WSW 06:09:17 84° NNW 06:12:14 10° ENE
Feng Yun 1-1 Rocket 4.4 06:03:26 10° NNE 06:09:22 71° WNW 06:15:12 10° SW
Cosmos 1500 Rocket 3.7 06:05:40 10° NNW 06:10:06 60° W 06:14:31 10° S
Cosmos 2151 4.2 06:06:49 10° NW 06:10:11 23° W 06:13:33 10° SW
Okean O Rocket 2.5 06:06:55 10° N 06:10:47 29° NW 06:14:37 10° WSW
Cosmos 1697 Rocket 3.7 06:06:24 10° WNW 06:11:25 32° N 06:16:27 10° ENE
